カタログに戻る

ONEWEB-0163

運用中通信PO
NORAD 48061·PAYLOAD·🇬🇧 United Kingdom

打ち上げ Mar 25, 2021 から Vostochny Cosmodrome

Loading…

次のパス (今後24時間)

TLE

最新Source: CelesTrak SupGP

元期: Sep 14, 2026, 15:40 UTC

1 48061C 21025V   26257.65295556 -.00000742  00000+0 -20346-2 0  2572
2 48061  87.8929 302.4279 0001628  96.3052   3.3181 13.13474013    17

AllMySatでONEWEB-0163をリアルタイム追跡

Download on the App Store